STARLINK-33903, 63828

Orbit data source: Space-Track

STARLINK-33903, 63828 is a payload satellite owned by SpaceX/Seattle (US) in LEO that was launched on Sun, 04 May 2025 UTC via an FALCON 9 launch vehicle from the Air Force Eastern Test Range (AFETR). Payload-class satellites include a variety of spacecraft equipped with specific instruments for various scientific and technological missions. These include communications satellites like Starlink; space stations such as the ISS; scientific satellites like the Hubble; Earth observation satellites from companies like Planet Labs, Umbra, and HawkEye 360; GPS; miniature CubeSats for education and research; and military/defense satellites.

Loading next visibility...
Identifier
63828, 2025-092AA
Orbit
LEO
Country
Flag of USUS
Related business
Manufacturer
SpaceX/Seattle
Mission
Operational Commercial Communications
Bus & Motor
STARLINK V2MO, Unknown motor
Mass
575 kg wet, ~530 kg dry
Launch date (UTC)
2025-05-04 (5 months ago)
Launch vehicle
FALCON 9
Launch site
Air Force Eastern Test Range (AFETR)
Object type
Payload
Rocket body
Debris
Shape & HBR
Box + 1 Pan, 14.5 m
Radar Cross Section
41.120 m², Large (>1 m²)

Expand to show TLE details & history
Last TLE update: 1 day ago

TLE from 1 day ago
0 STARLINK-33903
1 63828U 25092AA  25259.75502758  .00034073  00000-0  12418-2 0  9992
2 63828  43.0004  74.8196 0001381 251.5999 108.4703 15.27584482 22067
Epoch: 2025-09-16T18:07Z
TLE epoch observation values (Epoch: 2025-09-16T18:07:14.382Z)
Latitude
-0.00001°
Longitude
167.06889°
Altitude
483.111 km
Speed
7.625 km/s
True Right ascension
04h 59m 16s
True Declination
0° 00' 00"
Sunlit
Object was in daylight at epoch
Visualization orbit readout
Latitude
Unknown
Longitude
Unknown
Altitude
Unknown
Speed
Unknown
Apparent Right ascension
Unknown
Apparent Declination
Unknown
Sunlit
N/A
Visualization observer readout
Local Sidereal Time
17:33:36
Azimuth
Unknown
Elevation
Unknown
Doppler factor
Unknown
Orbital elements
Apogee altitude
485.929 km
Perigee altitude
484.033 km
Semi-major axis
6,863.118 km
Eccentricity
0.00014
Inclination
43.0004°
RAAN
74.8196°
Arg. of periapsis
251.5999°
True anomaly
108.48531°
Mean anomaly
108.4703°
Eccentric anomaly
108.4778°
Mean motion
3.81734 °/min
Orbital period
94.31 mins
BSTAR
0.0012418
Loading maneuver chart data...
Computing Atmospheric mass density...
Loading historical data...
Loading historical data...
Loading historical data...
Loading historical data...
Loading historical data...
Loading historical data...
Loading historical data...

Documentation

Showing up to 5 results
|